{"data":{"norad_id":48466,"intl_designator":"2021-040AQ","name":"STARLINK-2687","alt_names":[],"object_type":"PAYLOAD","status":"ACTIVE","operator":null,"country":"US","launch_date":"2021-05-09","launch_site_code":"AFETR","launch_vehicle":null,"mission":null,"orbit_class":"UNKNOWN","rcs_meters":null,"size_class":null,"mass_kg":null,"dimensions":null,"purposes":["comms"],"wikipedia_slug":null,"has_3d_model":false,"image_url":null,"decayed_at":null,"tle_current":{"epoch":"2026-05-25T03:40:47.680032Z","epoch_age_seconds":72013,"freshness":"FRESH","line1":"1 48466U 21040AQ  26145.15332963  .00000892  00000+0  40499-4 0  9993","line2":"2 48466  53.1595 195.4740 0001205  79.7458 280.3679 15.31700256278222","mean_motion":15.31700256,"eccentricity":0.0001205,"inclination_deg":53.1595,"raan_deg":195.474,"arg_perigee_deg":79.7458,"mean_anomaly_deg":280.3679,"bstar":4.0499e-5,"rev_number":27822,"period_min":94.013172248239,"perigee_km":469.91394251711,"apogee_km":471.56452168904,"semimajor_km":6848.8762321031,"source":"CELESTRAK","updated_at":"2026-05-25T13:38:16.720197Z"}}}